Location: Newark
(41.8083°N, 72.2500°W)
Time: 19:03:36
(UTC+00:00)

Courier 1B - Pass Details

Date: 06 December 2021
Orbit: 962 x 1209 km, 28.3° (Epoch: 19 January)

Event Time Altitude Azimuth Distance (km) Brightness Sun altitude
Rises 20:53:38 0° 236° (SW) 4,080 14.4 3.0°
Reaches altitude 10° 20:57:02 10° 224° (SW) 3,094 12.1 2.5°
Maximum altitude 21:03:05 26° 171° (S) 2,085 9.6 1.6°
Drops below altitude 10° 21:08:56 10° 118° (ESE) 2,968 9.8 0.6°
Sets 21:12:07 0° 107° (ESE) 3,884 10.2 0.1°
